Temp
57 52 48 54 58 58 58 53 51 52 55 53 52 52 58 60 59 58 61 62 64 66 67 68 68 69 69 69 70 70 70 69 67 65 64 63 64 64 65 65 66 67 66 66
53 48 58 61 59 57 55 54 49 50 55 51 52 52 57 60 59 61 63 63 64 65 63 66 61 59 64 66 67 69 70 69 68 65 67 66 65 64 65 65 65 66 65 65
50 54 62 57 54 54 53 53 49 49 50 49 45 46 52 57 61 58 55 57 61 63 63 61 61 56 59 60 62 67 68 69 70 67 65 64 63 62 62 62 63 64 65 64
55 58 57 54 54 56 49 54 54 49 46 41 48 38 45 50 52 55 57 55 58 58 58 59 58 56 56 56 57 61 66 68 69 68 65 63 62 61 62 63 63 63 64 63
49 50 51 51 55 58 51 55 52 49 45 41 41 39 45 52 50 52 55 57 55 56 58 57 55 57 54 55 54 56 61 65 67 67 64 63 62 62 62 62 62 62 62 63
48 53 53 54 53 55 55 52 52 48 45 34 43 42 42 48 52 53 53 55 55 54 53 54 55 57 55 54 54 57 60 62 63 64 64 65 62 61 60 60 60 60 61 61
46 47 50 53 48 50 51 47 32 32 30 30 38 37 45 50 54 54 53 52 52 53 52 52 52 52 53 54 54 55 55 55 57 58 58 60 61 60 59 58 57 57 57 58
39 35 46 51 49 45 47 47 34 29 27 30 33 33 45 48 52 55 55 52 52 50 52 51 51 51 51 53 53 54 57 56 57 57 58 60 60 59 58 58 55 53 52 52
43 38 47 49 50 52 45 42 46 34 23 28 34 42 45 48 48 50 50 51 50 50 50 51 52 51 50 51 51 52 52 52 53 53 53 52 53 53 52 51 51 51 51 52
51 35 45 46 49 48 47 52 39 38 22 24 33 34 41 42 45 48 48 48 49 50 50 50 50 50 51 51 51 51 51 50 50 50 50 50 50 51 50 49 48 48 48 49
51 43 37 43 42 43 44 43 44 45 38 28 25 34 45 48 50 48 48 51 49 49 49 49 49 51 51 51 50 50 50 49 49 49 48 48 48 48 48 46 46 46 46 46
47 43 33 39 43 45 44 47 47 37 33 35 31 35 48 48 53 52 51 51 50 51 50 49 49 49 49 48 48 47 47 47 48 48 47 46 47 46 45 44 44 44 44 45
48 38 29 34 41 42 40 45 47 46 37 32 29 35 47 47 51 53 51 51 51 50 49 49 49 49 48 48 47 46 46 46 46 46 44 44 44 43 42 42 42 42 42 42
51 41 38 34 38 44 39 43 45 46 33 33 35 40 41 47 48 50 50 50 49 50 51 50 49 48 48 47 46 45 45 45 45 44 42 40 40 41 40 40 40 40 40 40
50 37 42 44 46 46 43 42 43 42 48 40 46 44 47 48 50 51 50 51 49 49 50 50 48 46 45 45 45 45 44 45 44 42 40 39 39 39 38 37 36 36 36 38
48 33 42 35 41 42 39 43 45 46 46 45 45 46 54 54 53 52 52 51 49 49 50 49 48 48 47 47 46 46 43 42 41 38 37 37 35 34 34 34 34 34 34 34
43 35 30 25 35 37 30 38 44 45 48 49 44 52 52 50 53 53 52 52 50 50 50 48 48 48 47 45 46 42 41 39 36 34 33 33 33 33 33 33 33 33 33 33
41 36 33 26 29 22 40 49 50 48 49 52 52 50 51 52 55 56 57 53 51 50 49 48 47 46 43 42 41 41 38 35 34 33 31 31 32 31 31 31 31 31 31 31
47 40 31 31 27 35 41 43 42 40 45 51 51 54 51 50 48 47 53 54 53 51 49 48 47 44 42 41 39 35 34 33 33 32 32 32 30 27 27 25 28 29 28 28
42 46 36 31 23 22 43 44 49 49 38 50 53 50 47 48 44 49 51 53 51 50 48 45 43 42 40 38 37 34 33 32 31 31 31 30 28 24 24 27 26 26 24 29
31 30 32 30 21 30 38 41 48 33 38 40 50 51 47 51 57 51 47 46 48 46 42 42 41 39 38 36 33 32 31 29 29 29 27 25 25 22 23 24 23 22 23 26
32 29 27 25 22 27 38 39 41 45 36 37 39 46 48 43 41 43 45 43 40 38 39 40 37 35 33 32 32 30 29 29 25 23 21 18 16 19 23 16 18 19 21 22
33 37 34 37 35 37 36 36 38 39 39 36 38 40 39 38 37 39 37 37 37 37 36 36 33 30 29 27 30 29 25 24 21 15 13 13 14 17 17 14 17 17 15 18
31 31 32 37 33 32 35 36 38 38 38 38 39 39 39 37 38 37 37 36 35 34 33 31 30 27 25 25 24 22 20 18 11 10 12 14 14 15 13 18 20 14 14 20
32 33 31 31 29 30 32 34 37 38 38 38 38 38 38 38 37 37 35 34 33 32 31 32 30 27 23 21 18 17 16 15 14 12 14 13 14 10 16 18 18 21 20 21
31 32 32 33 38 38 38 37 39 37 37 37 36 35 36 37 36 35 33 33 31 28 27 26 24 22 18 16 14 12 9 11 9 11 13 11 11 11 15 15 17 24 27 28
MSLP
1013.24 1013.00 1011.42 1011.55 1011.67 1011.50 1011.70 1011.97 1012.66 1013.35 1013.98 1014.38 1014.46 1014.59 1014.32 1014.29 1014.54 1014.59 1014.52 1014.58 1014.83 1015.03 1015.10 1015.54 1015.84 1016.23 1016.68 1017.15 1017.63 1018.16 1018.75 1019.38 1020.19 1020.93 1021.49 1021.95 1022.24 1022.61 1022.85 1023.13 1023.39 1023.67 1024.02 1024.30
1012.67 1011.54 1011.35 1011.43 1011.43 1011.38 1011.42 1011.88 1012.87 1013.95 1014.30 1014.52 1014.66 1014.57 1014.26 1014.05 1014.16 1014.46 1014.57 1014.56 1014.73 1015.00 1015.57 1015.77 1016.32 1016.59 1016.80 1017.13 1017.62 1017.87 1018.22 1018.81 1019.65 1020.44 1021.03 1021.55 1022.01 1022.40 1022.58 1022.94 1023.17 1023.40 1023.68 1024.00
1011.00 1010.95 1010.97 1011.13 1011.16 1011.47 1011.48 1011.67 1012.87 1013.92 1014.85 1015.21 1015.11 1014.66 1014.28 1013.79 1013.88 1014.25 1014.54 1014.76 1014.99 1015.20 1015.77 1016.41 1016.68 1017.21 1017.47 1017.68 1017.64 1017.78 1017.90 1018.29 1018.92 1019.82 1020.67 1021.25 1021.84 1022.26 1022.69 1023.02 1023.20 1023.24 1023.27 1023.38
1010.68 1010.68 1010.80 1011.08 1011.29 1011.43 1011.71 1011.86 1012.69 1014.13 1015.11 1015.53 1015.26 1014.75 1013.63 1013.44 1014.09 1014.51 1014.86 1015.26 1015.54 1016.06 1016.39 1016.87 1017.20 1017.59 1017.92 1018.17 1018.20 1018.05 1017.98 1018.27 1018.69 1019.28 1020.38 1020.91 1021.53 1021.97 1022.28 1022.58 1022.78 1022.93 1023.14 1023.31
1011.14 1010.95 1011.11 1011.19 1011.20 1011.47 1012.39 1012.35 1013.26 1014.49 1015.25 1015.63 1015.86 1015.72 1014.34 1013.87 1014.46 1014.81 1015.19 1015.71 1016.22 1016.59 1017.12 1017.62 1017.98 1018.19 1018.38 1018.43 1018.58 1018.49 1018.24 1018.32 1018.67 1019.15 1019.88 1020.66 1021.43 1022.01 1022.30 1022.52 1022.68 1022.79 1022.95 1023.14
1011.64 1011.63 1011.53 1011.49 1011.92 1011.75 1012.67 1013.19 1014.25 1015.23 1015.96 1016.74 1015.86 1015.76 1014.68 1014.16 1013.80 1014.59 1015.41 1016.20 1016.72 1017.28 1017.95 1018.25 1018.51 1018.40 1018.95 1018.72 1018.79 1018.64 1018.84 1018.94 1019.02 1019.45 1019.88 1020.38 1021.33 1021.98 1022.47 1022.77 1022.99 1023.14 1023.15 1023.14
1011.93 1012.14 1012.22 1011.95 1012.30 1012.85 1012.94 1013.50 1015.56 1016.80 1017.21 1017.30 1016.83 1016.26 1014.50 1013.93 1013.59 1014.12 1015.33 1016.78 1017.31 1017.66 1018.22 1018.83 1019.02 1019.22 1019.37 1019.31 1019.44 1019.31 1019.57 1020.03 1020.04 1020.18 1020.59 1020.91 1021.55 1022.17 1022.65 1023.04 1023.34 1023.46 1023.59 1023.65
1011.53 1012.81 1012.62 1012.32 1012.10 1012.33 1012.98 1013.13 1014.53 1016.29 1017.82 1018.10 1017.86 1016.28 1014.54 1014.56 1014.42 1014.78 1015.76 1016.83 1017.88 1018.40 1018.53 1019.11 1019.44 1019.78 1020.04 1019.81 1019.92 1020.03 1020.41 1020.66 1020.85 1021.09 1021.37 1021.74 1021.98 1022.49 1022.93 1023.33 1023.73 1024.04 1024.22 1024.46
1010.32 1012.23 1012.95 1012.89 1012.57 1012.42 1013.22 1013.39 1014.05 1015.98 1017.99 1018.13 1017.10 1015.85 1014.99 1015.06 1015.47 1015.62 1016.50 1017.40 1018.16 1018.76 1018.97 1019.48 1019.79 1020.17 1020.60 1020.65 1020.66 1020.84 1021.07 1021.40 1021.70 1022.03 1022.40 1022.80 1022.84 1023.33 1023.72 1024.09 1024.43 1024.80 1024.72 1024.63
1008.93 1012.07 1013.39 1013.55 1013.14 1012.93 1012.54 1012.93 1014.25 1015.28 1017.44 1018.11 1016.63 1015.33 1014.59 1015.05 1015.33 1015.86 1016.60 1017.27 1018.08 1018.81 1019.24 1019.70 1019.97 1020.56 1021.08 1021.07 1021.07 1021.37 1021.70 1022.19 1022.46 1022.67 1023.16 1023.51 1023.83 1024.14 1024.40 1024.61 1025.00 1025.29 1025.39 1025.32
1008.82 1010.87 1014.19 1014.17 1013.42 1012.77 1012.97 1012.95 1013.53 1014.52 1015.73 1016.31 1016.51 1015.06 1013.54 1013.37 1014.30 1015.33 1016.19 1017.07 1017.82 1018.78 1019.34 1019.89 1020.26 1020.69 1021.36 1021.67 1021.75 1021.81 1022.39 1022.83 1023.24 1023.42 1023.78 1024.08 1024.47 1024.87 1025.01 1025.20 1025.52 1025.71 1025.81 1025.85
1009.48 1011.10 1013.47 1013.83 1013.53 1012.94 1012.56 1012.59 1013.15 1014.30 1015.77 1015.99 1015.93 1014.51 1013.44 1013.11 1013.50 1014.72 1015.90 1016.80 1017.76 1018.51 1019.32 1019.96 1020.66 1021.03 1021.77 1022.33 1022.54 1022.62 1022.93 1023.47 1023.76 1024.05 1024.38 1024.88 1025.22 1025.57 1025.82 1026.01 1026.00 1026.06 1026.15 1026.10
1009.32 1011.02 1013.15 1014.08 1013.96 1013.45 1013.05 1012.89 1012.79 1013.61 1014.54 1015.26 1015.59 1014.37 1013.60 1013.08 1013.61 1014.45 1015.50 1016.60 1017.59 1018.45 1019.34 1020.08 1020.61 1021.05 1021.73 1022.38 1022.78 1023.23 1023.53 1023.95 1024.24 1024.66 1025.20 1025.59 1025.78 1026.00 1026.45 1026.65 1026.54 1026.50 1026.60 1026.58
1008.79 1010.23 1010.95 1011.78 1011.61 1012.08 1012.82 1012.31 1012.56 1013.23 1014.35 1014.13 1013.84 1013.50 1013.62 1013.46 1013.61 1014.43 1015.39 1016.44 1017.48 1018.28 1019.11 1019.95 1020.63 1020.99 1021.71 1022.33 1022.72 1023.36 1023.74 1024.30 1024.79 1025.22 1025.74 1026.28 1026.58 1026.78 1027.05 1027.25 1027.24 1027.26 1027.17 1026.96
1009.25 1010.26 1011.00 1011.32 1011.13 1011.20 1011.38 1011.83 1012.27 1012.64 1012.05 1013.00 1011.92 1012.71 1012.32 1012.76 1013.17 1013.81 1014.91 1016.20 1017.22 1018.14 1018.92 1019.72 1020.44 1020.96 1021.83 1022.40 1023.01 1023.71 1024.07 1024.62 1025.20 1025.67 1026.16 1026.79 1026.95 1027.38 1027.59 1027.54 1027.39 1027.47 1027.44 1027.22
1009.62 1010.52 1011.10 1012.02 1011.90 1011.61 1011.68 1011.64 1011.79 1011.56 1011.50 1011.92 1011.56 1011.36 1010.80 1011.44 1012.60 1013.52 1014.27 1015.56 1016.63 1017.48 1018.32 1019.27 1020.11 1020.83 1021.81 1022.43 1022.88 1023.67 1024.36 1025.00 1025.51 1026.15 1026.91 1027.23 1027.38 1027.58 1027.54 1027.51 1027.63 1027.63 1027.38 1027.27
1010.13 1011.16 1012.31 1013.23 1012.96 1012.68 1012.70 1010.78 1010.70 1011.00 1010.89 1010.45 1010.66 1009.64 1010.48 1011.31 1011.76 1012.33 1013.63 1014.49 1015.24 1016.34 1017.52 1018.68 1019.66 1020.67 1021.74 1022.44 1022.99 1023.89 1024.65 1025.26 1026.11 1026.73 1027.31 1027.48 1027.65 1027.83 1027.89 1027.87 1027.85 1027.73 1027.55 1027.33
1010.30 1011.71 1013.03 1014.17 1013.81 1013.20 1010.43 1009.57 1009.66 1009.82 1009.41 1009.62 1009.15 1009.55 1009.98 1010.25 1010.72 1011.45 1012.15 1012.90 1014.53 1015.92 1017.07 1018.31 1019.40 1020.70 1021.73 1022.55 1023.33 1024.04 1024.82 1025.76 1026.40 1026.90 1027.38 1027.61 1027.79 1027.90 1027.94 1027.95 1027.82 1027.59 1027.39 1027.15
1010.36 1011.28 1013.05 1014.47 1014.31 1012.10 1010.16 1009.60 1009.34 1009.56 1008.61 1009.23 1008.99 1008.81 1009.54 1010.19 1011.08 1011.50 1011.63 1012.44 1013.61 1015.04 1016.68 1018.03 1019.33 1020.64 1021.83 1022.79 1023.64 1024.44 1025.53 1026.17 1026.66 1027.21 1027.60 1027.85 1028.09 1028.06 1027.95 1028.11 1027.82 1027.46 1027.37 1027.02
1011.31 1011.37 1012.68 1014.13 1013.65 1012.41 1008.08 1008.90 1008.48 1009.22 1008.98 1008.05 1008.54 1008.91 1009.87 1010.56 1011.47 1010.41 1011.19 1011.97 1013.53 1014.98 1016.43 1017.96 1019.51 1020.79 1021.99 1023.00 1023.73 1024.67 1025.65 1026.24 1026.89 1027.31 1027.59 1027.98 1028.22 1028.23 1028.12 1028.00 1027.89 1027.66 1027.31 1026.85
1012.45 1012.75 1012.58 1013.03 1012.97 1010.80 1008.86 1008.55 1008.66 1009.85 1007.95 1007.45 1007.92 1008.64 1009.36 1009.74 1008.85 1009.60 1011.09 1012.56 1013.73 1015.18 1016.74 1018.19 1019.66 1020.98 1022.15 1023.10 1023.96 1025.01 1025.82 1026.65 1027.16 1027.42 1027.96 1028.05 1028.23 1028.27 1028.37 1028.03 1027.85 1027.44 1027.17 1026.75
1011.17 1012.28 1012.61 1012.82 1012.88 1011.21 1008.79 1009.11 1009.02 1008.39 1008.23 1008.28 1008.33 1008.69 1009.25 1009.90 1010.31 1011.02 1011.99 1013.32 1014.67 1016.00 1017.37 1018.56 1020.18 1021.74 1022.81 1023.54 1024.13 1025.30 1026.11 1026.80 1027.24 1027.75 1027.97 1028.09 1028.21 1028.23 1028.12 1027.99 1027.81 1027.55 1027.26 1026.94
1010.86 1010.42 1010.85 1011.03 1010.48 1009.51 1008.82 1009.02 1008.91 1008.99 1009.12 1009.23 1009.31 1009.42 1009.96 1010.96 1011.82 1012.31 1013.52 1014.67 1015.81 1016.90 1018.32 1019.50 1020.79 1022.42 1023.67 1024.18 1024.46 1025.48 1026.30 1026.64 1027.45 1028.01 1028.11 1028.15 1028.15 1028.14 1028.11 1028.03 1027.85 1027.64 1027.10 1026.87
1010.81 1010.75 1010.59 1010.73 1010.07 1010.10 1009.95 1009.69 1009.44 1009.70 1009.97 1010.00 1010.01 1010.43 1010.87 1011.57 1012.51 1013.42 1014.45 1015.53 1016.60 1017.89 1018.94 1020.06 1021.42 1023.01 1024.32 1024.86 1025.10 1025.69 1026.74 1027.22 1027.52 1028.37 1028.58 1028.34 1028.30 1028.15 1028.09 1028.00 1027.59 1027.31 1027.13 1026.60
1011.70 1011.13 1010.92 1010.71 1010.45 1010.37 1010.23 1010.24 1010.31 1010.50 1010.47 1010.67 1011.00 1011.15 1011.65 1012.46 1013.64 1014.21 1015.19 1016.28 1017.39 1018.43 1019.66 1020.56 1021.76 1023.09 1024.52 1025.35 1026.22 1026.97 1027.39 1027.67 1028.25 1028.71 1028.74 1028.81 1028.65 1028.69 1028.15 1027.67 1027.31 1026.85 1026.46 1026.11
1011.39 1010.96 1010.76 1010.38 1010.03 1010.31 1010.51 1010.08 1010.50 1010.91 1011.09 1011.63 1012.02 1012.43 1012.88 1013.30 1013.96 1015.07 1016.45 1017.36 1018.04 1019.16 1020.21 1021.30 1022.51 1023.90 1025.26 1026.11 1026.83 1027.59 1027.89 1028.12 1028.66 1029.28 1029.49 1029.36 1029.03 1028.73 1028.41 1027.93 1026.68 1026.54 1025.86 1025.38
Wind_Speed
11 11 16 16 11 7 10 6 8 6 3 4 7 5 8 9 6 6 6 8 9 9 6 6 6 7 7 6 8 9 11 12 10 6 5 4 5 4 3 4 5 5 4 4
11 19 12 10 9 9 5 13 6 6 6 3 6 9 7 6 6 9 8 8 8 9 6 7 3 1 2 5 6 7 8 9 11 8 7 3 4 2 3 4 4 5 6 6
11 10 10 7 5 7 6 11 6 6 4 2 1 6 8 7 5 4 1 2 4 6 6 7 6 3 3 4 5 7 7 8 9 12 6 4 3 2 2 2 3 5 6 6
10 5 9 9 9 8 5 3 9 12 7 4 6 6 5 7 6 5 6 4 6 6 4 6 5 5 4 3 5 4 4 5 6 9 9 9 5 3 3 4 3 4 5 5
5 6 8 9 9 7 3 8 8 5 4 3 3 2 4 9 7 7 8 7 7 7 7 7 6 5 3 1 2 3 2 2 5 5 10 6 4 2 1 1 4 3 3 5
3 3 1 3 5 6 8 11 8 4 3 1 5 7 5 6 9 8 7 8 9 8 7 7 5 7 3 4 3 3 4 4 6 6 4 7 7 5 3 1 2 2 2 1
3 2 2 1 10 3 6 8 3 2 1 6 7 3 8 4 2 9 11 9 8 8 8 7 7 7 6 7 7 7 8 8 8 9 8 8 8 5 6 4 3 3 3 3
6 3 7 4 5 9 9 8 7 6 5 4 3 7 7 3 7 8 10 10 8 8 8 8 8 7 6 7 8 8 9 7 7 8 8 7 6 4 4 5 4 4 4 4
10 3 3 4 3 7 5 5 3 9 2 5 6 6 2 5 4 7 10 9 8 8 8 8 8 8 7 7 8 8 8 8 8 8 7 8 8 8 7 8 6 4 5 4
7 7 2 1 2 3 3 8 4 1 5 4 5 2 6 8 11 10 10 10 9 7 9 8 8 8 6 7 8 9 8 9 9 9 7 7 7 7 7 7 7 7 6 7
2 7 2 3 6 8 3 3 2 5 5 6 4 7 2 11 14 13 10 10 10 9 8 7 7 8 7 7 7 8 8 9 8 8 7 8 7 7 7 7 6 6 6 6
2 7 5 2 1 3 3 4 6 5 3 2 4 7 3 3 12 12 10 10 9 9 9 8 8 8 7 7 7 8 8 8 7 7 8 8 8 7 7 7 7 6 6 6
8 3 6 4 3 2 3 5 3 5 4 5 7 7 4 1 10 10 13 12 10 10 9 8 8 8 8 7 7 7 7 7 8 8 8 8 8 7 7 7 6 6 6 6
7 4 8 9 6 9 8 11 9 8 4 5 7 4 4 7 10 10 11 11 11 11 11 9 8 8 8 7 8 7 8 7 7 8 8 7 7 7 6 6 6 6 5 5
6 7 6 3 4 6 6 10 9 9 15 9 11 8 7 11 12 14 12 13 13 12 12 10 11 9 8 8 8 8 7 7 7 8 7 6 6 6 5 4 5 5 5 5
1 3 6 1 4 5 4 9 16 19 14 9 6 8 7 12 9 13 16 16 16 16 14 13 11 11 10 9 10 10 8 7 7 7 7 5 6 5 6 6 6 5 5 5
7 6 4 3 7 6 5 14 17 12 11 20 17 21 6 8 16 17 17 20 21 19 16 15 14 11 10 9 9 10 8 7 7 8 6 5 5 5 5 5 5 5 5 5
8 7 3 2 3 4 10 11 14 21 14 19 13 5 11 10 17 18 19 22 19 19 18 15 13 11 9 8 9 10 8 7 7 7 5 4 4 4 4 4 5 5 4 5
4 5 5 8 4 8 10 8 11 10 19 11 19 20 7 5 6 6 11 15 18 17 14 14 12 13 11 10 9 9 8 7 7 6 5 4 3 2 3 4 5 5 4 5
4 8 4 4 7 13 22 7 7 8 15 13 17 11 9 9 9 11 12 17 14 17 17 17 15 14 13 9 10 9 7 7 6 4 3 2 2 3 3 4 5 3 3 8
4 1 11 7 4 10 6 6 8 11 12 6 13 13 15 13 17 6 11 9 16 17 18 17 16 14 11 10 9 9 8 6 4 2 1 2 2 3 4 5 3 3 6 7
10 9 5 3 3 17 5 5 17 7 1 1 1 6 12 6 7 11 14 18 19 20 19 17 15 12 8 7 9 8 7 4 4 2 2 2 2 3 3 3 4 5 6 6
6 6 8 11 9 2 1 2 3 3 1 2 2 1 9 10 7 13 14 15 16 17 15 13 15 13 7 5 6 9 5 5 4 3 3 3 4 3 3 3 5 3 3 4
1 1 3 4 3 2 2 2 1 1 1 2 2 6 8 10 14 14 14 15 14 13 14 13 14 11 8 5 7 7 6 4 5 4 4 3 3 4 4 2 3 2 3 6
1 2 3 5 3 4 4 6 1 1 2 3 3 4 9 14 12 15 14 14 14 13 11 11 12 10 9 7 7 5 5 5 4 3 3 3 2 3 5 4 4 6 4 5
5 5 3 3 1 2 4 5 5 5 4 5 6 6 5 10 15 13 12 11 13 12 9 9 9 11 8 7 7 5 4 5 5 2 1 1 2 2 4 7 9 10 16 17
Wind_Direction
198 208 209 198 204 232 163 208 144 105 70 152 211 225 199 186 183 249 206 177 174 187 166 114 157 177 176 179 173 173 170 169 165 166 170 169 186 177 173 177 188 181 198 233
175 220 203 196 198 237 257 183 150 49 112 111 204 237 246 227 191 198 204 215 188 135 127 129 133 281 202 194 200 188 177 171 166 169 180 159 148 179 176 185 187 186 190 200
188 188 199 173 165 173 243 174 144 135 128 264 334 268 215 210 172 137 189 123 89 93 132 131 145 207 237 242 229 205 200 179 171 165 153 128 121 81 136 177 188 202 200 198
200 212 181 157 182 177 163 66 126 125 142 198 167 265 200 157 181 190 186 188 160 120 105 91 110 93 69 331 341 318 219 194 172 153 158 160 166 164 170 182 180 196 204 211
181 159 167 171 184 181 154 115 120 133 144 120 223 99 259 124 185 195 172 158 117 103 121 102 87 82 81 37 273 278 284 175 152 148 144 152 112 89 64 106 188 188 202 215
83 300 151 125 55 113 139 96 80 76 112 322 194 158 252 182 196 149 133 146 134 124 98 96 104 89 92 98 99 99 97 64 81 80 116 137 137 149 147 160 95 50 47 64
121 69 24 160 85 119 145 139 115 119 208 210 336 104 242 190 94 144 144 143 130 141 134 123 91 80 68 83 69 63 70 55 55 73 70 90 95 103 91 81 76 58 33 24
154 189 174 185 169 172 190 168 146 169 171 199 339 221 246 72 76 92 120 133 137 117 117 115 109 94 78 74 93 101 97 83 67 64 60 62 78 78 79 68 68 58 65 45
170 86 50 36 4 136 212 220 102 104 31 76 201 255 22 143 126 128 130 140 149 139 125 120 112 93 81 80 80 82 84 83 82 80 76 68 67 73 74 61 58 56 48 36
161 108 333 310 310 81 175 146 85 17 126 215 241 224 223 208 191 172 166 162 148 141 127 121 107 105 96 90 87 81 80 84 84 78 73 75 72 72 73 70 58 46 36 28
69 108 174 157 215 162 146 174 199 148 145 162 145 253 296 200 181 176 168 158 147 144 141 127 118 111 106 92 89 92 84 85 79 78 76 74 67 62 62 64 56 45 39 27
59 107 136 180 43 7 15 177 168 142 223 80 137 272 318 337 159 158 165 145 144 142 134 126 126 119 101 90 82 82 79 82 85 82 76 70 69 65 59 53 49 37 32 24
185 122 99 21 346 28 215 172 219 110 84 194 139 255 311 54 132 156 155 152 148 139 135 136 133 128 125 120 108 99 89 88 85 80 75 67 63 61 54 42 38 32 21 17
113 144 150 181 194 134 187 194 190 171 138 180 218 187 217 174 160 157 154 149 145 149 151 150 140 132 129 126 116 111 99 91 92 91 86 76 63 59 53 40 31 24 7 10
158 185 179 154 126 143 163 176 168 202 215 182 223 218 192 193 180 172 154 156 158 160 162 157 149 139 136 124 115 106 96 96 97 91 84 77 74 64 58 46 28 12 6 355
261 212 154 101 70 59 141 174 184 208 220 265 258 262 185 190 150 164 171 168 171 172 172 160 154 147 142 139 129 121 111 102 98 88 83 78 74 60 42 26 7 352 348 335
149 118 84 228 121 87 350 209 189 205 211 213 227 234 160 173 182 179 176 182 183 176 169 163 157 148 141 139 129 124 119 105 97 96 88 75 63 45 24 0 346 333 321 311
147 116 59 117 76 144 245 157 189 203 208 215 237 224 187 184 193 188 189 183 179 174 169 160 149 135 129 120 112 113 108 112 111 105 97 74 50 28 355 335 322 312 296 301
158 136 133 193 223 294 288 203 176 169 244 211 223 235 199 183 127 242 185 177 179 174 157 148 141 133 127 125 122 116 115 115 100 86 74 41 8 329 307 309 305 306 294 301
354 201 135 163 161 201 248 184 123 87 267 198 216 220 159 135 184 219 182 169 153 149 150 143 137 128 127 132 131 124 126 113 103 88 60 4 293 287 299 294 300 273 284 299
135 58 198 191 217 275 200 161 124 144 245 218 187 195 172 193 213 173 132 128 142 143 138 131 131 134 134 133 129 123 123 111 112 78 355 327 317 298 275 293 294 297 306 303
159 155 188 98 155 257 143 55 168 216 151 299 268 205 189 159 109 125 136 136 137 136 135 132 128 124 118 126 125 127 118 119 100 66 2 329 300 306 321 311 301 303 292 289
179 190 182 176 212 212 209 105 75 69 43 260 263 187 133 126 133 132 131 132 136 135 129 126 126 119 106 98 126 130 129 99 85 52 15 339 334 317 295 306 293 293 289 289
276 358 168 106 271 180 274 344 35 69 267 241 214 147 146 136 142 136 136 138 134 135 131 128 126 128 127 114 91 92 100 93 74 48 359 329 332 323 309 293 275 277 292 303
201 105 168 288 299 315 269 228 0 80 81 111 108 129 135 135 143 143 141 137 137 133 133 141 141 133 125 115 101 96 83 75 64 35 336 326 345 330 313 299 304 304 272 281
183 176 174 235 142 87 272 161 159 159 153 169 150 119 107 143 144 136 138 140 139 136 128 120 116 123 131 126 112 95 84 82 74 28 354 319 298 322 323 317 316 311 305 307